Regional Weather Roundup
Issued by NWS Columbia, SC

Home | Current Version | Previous Version | Text Only | Print | Product List | Glossary On
Versions: 1 2 3 4 5 6 7 8 9 10 11 12 13 14 15 16 17 18 19 20 21 22 23 24 25 26 27 28 29 30 31 32 33 34 35 36 37 38 39 40 41 42 43 44 45 46 47 48 49 50
000
ASUS42 KCAE 280710
RWRCAE
REGIONAL WEATHER ROUNDUP
NATIONAL WEATHER SERVICE COLUMBIA SC
300 AM EDT FRI AUG 28 2015

NOTE: "FAIR" INDICATES FEW OR NO CLOUDS BELOW 12,000 FEET WITH NO
SIGNIFICANT WEATHER AND/OR OBSTRUCTIONS TO VISIBILITY.

NOT ALL STATIONS ARE QUALITY CONTROLLED BY THE NATIONAL
WEATHER SERVICE. USE DATA WITH CAUTION...ESPECIALLY
DEWPOINT OBSERVATIONS.

SCZ001>056-GAZ040-063>065-077-280800-
...UPSTATE SOUTH CAROLINA...

CITY           SKY/WX    TMP DP  RH WIND       PRES   REMARKS
ANDERSON       CLEAR     69  64  84 NE7       30.09F
LIBERTY        SUNNY     68  63  82 NE5       30.11S
SPARTANBURG    CLEAR     70  61  73 CALM      30.12R
CLEMSON        CLEAR     71  63  75 NE5       30.12S
GREENVILLE     CLEAR     70  62  76 NE6       30.13S
GREENWOOD      CLEAR     69  66  90 NE3       30.10F
GREER          CLEAR     68  63  84 NE5       30.11F
ROCK HILL      CLEAR     65  61  87 CALM      30.12F
CHESTER        SUNNY     68  61  77 CALM      30.12S
LAURENS        MOSUNNY   68  68 100 NE5       30.10S


...CENTRAL SOUTH CAROLINA...

CITY           SKY/WX    TMP DP  RH WIND       PRES   REMARKS
COLUMBIA APT   PTCLDY    73  66  78 E6        30.08S
COLUMBIA OWENS PTCLDY    72  66  81 VRB3      30.09S
DARLINGTON     PTCLDY    68  61  77 NE5       30.10S
FLORENCE       PTCLDY    69  64  84 NE6       30.08F
MCENTIRE ANGB  CLEAR     69  66  89 CALM      30.08S
ORANGEBURG     MOCLDY    72  68  87 NE7       30.07F
SUMTER SHAW    PTCLDY    68  65  90 NE6       30.06S
NEWBERRY       PTSUNNY   70  64  83 E6        30.12S
BARNWELL       FAIR      73  72  94 NE6       30.07F
MANNING        FAIR      68  68 100 N3        30.07S
CAMDEN         FAIR      68  63  83 CALM      30.10S
LANCASTER      SUNNY     66  64  94 CALM      30.11S
WINNSBORO      MOSUNNY   68  63  83 E6        30.09F


...EASTERN AND COASTAL SOUTH CAROLINA...

CITY           SKY/WX    TMP DP  RH WIND       PRES   REMARKS
N MYRTLE BCH   CLOUDY    70  67  90 NE9       30.05F
CONWAY         FAIR      68  68 100 N5        30.06F FOG
MARION         FAIR      68  63  83 CALM      30.07F
HARTSVILLE     FAIR      68  61  77 NE6       30.09S
FLORENCE       PTCLDY    69  64  84 NE6       30.08F
DARLINGTON     PTCLDY    68  61  77 NE5       30.10S
CHARLESTON APT MOCLDY    73  71  93 NE5       30.04F
MOUNT PLEASANT PTSUNNY   73  73 100 N3        30.04S FOG
WALTERBORO     MOSUNNY   73  72  94 NE5       30.06S
BEAUFORT       CLEAR     74  71  91 NE6       30.03F


...EASTERN GEORGIA...

CITY           SKY/WX    TMP DP  RH WIND       PRES   REMARKS
AUGUSTA BUSH F CLEAR     72  70  93 E3        30.05F
AUGUSTA DANIEL CLEAR     74  69  85 E9        30.07F
THOMSON        CLEAR     74  73  96 CALM      30.11S
WASHINGTON     FAIR      72  72 100 E3        30.07S
SYLVANIA       SUNNY     74  74  99 E7        30.05F
STATESBORO     CLEAR     73  73 100 CALM      30.04S
SAVANNAH       CLEAR     74  72  93 NE8       30.03F


...SOUTHERN NORTH CAROLINA...

CITY           SKY/WX    TMP DP  RH WIND       PRES   REMARKS
CHARLOTTE      CLEAR     70  61  73 E3        30.13S
MONROE         CLEAR     66  62  87 NE3       30.11F
WADESBORO      SUNNY     62  60  92 CALM      30.11S
ROCKINGHAM     SUNNY     66  63  90 CALM      30.10S
RUTHERFORDTON  MOCLDY    67  62  81 CALM      30.15S
ASHEVILLE      PTCLDY    60  58  92 S3        30.18F

$$



USA.gov is the U.S. government's official web portal to all federal, state and local government web resources and services.